Date String (YYYY-MM-DD hh:mm:ss) UTC,Instrument flags,Ambient pressure (hPa),Sample flow (lpm),Bypass flow (lpm),Sample temperature (°C),Ambient temperature (°C),ASC tube jacket temperature (°C),LED temperature (°C),Box temperature (°C),Sample RH (%),Span deviation,Mass concentration (μg/m³),Mass concentration (μg/m³),Mass concentration (μg/m³)
DateTimeUTC,F1_M11,P_M11,Q1_M11,Q2_M11,T1_M11,T2_M11,T3_M11,T4_M11,T5_M11,U1_M11,ZSPAN_M11,X0_M11,X2_M11,X1_M11
2021-10-31 05:00:00,,0830.1,5.00,0.00,29.8,28.8,00.0,38.9,31.5,15.9,0000.0,0010.27,0002.68,0001.85
2021-10-31 05:01:00,,0830.1,5.00,0.00,29.8,28.8,00.0,38.9,31.5,15.9,0000.0,0010.35,0002.70,0001.87
2021-10-31 05:02:00,,0830.1,5.00,0.00,29.8,28.9,00.0,38.9,31.5,15.9,0000.0,0010.45,0002.71,0001.89
2021-10-31 05:03:00,,0830.1,5.00,0.00,29.8,28.9,00.0,38.9,31.5,15.9,0000.0,0008.94,0002.75,0001.90
2021-10-31 05:04:00,,0830.1,5.00,0.00,29.8,28.9,00.0,38.9,31.5,15.9,0000.0,0008.56,0002.69,0001.91
2021-10-31 05:05:00,,0830.1,5.00,0.00,29.8,28.9,00.0,38.9,31.5,15.9,0000.0,0008.19,0002.66,0001.92
2021-10-31 05:06:00,,0830.1,4.99,0.00,29.8,28.9,00.0,38.9,31.5,15.9,0000.0,0007.89,0002.64,0001.91
2021-10-31 05:07:00,,0830.1,5.01,0.00,29.8,28.9,00.0,38.9,31.5,15.9,0000.0,0007.77,0002.61,0001.90
2021-10-31 05:08:00,,0830.1,5.01,0.00,29.8,28.9,00.0,38.9,31.5,15.9,0000.0,0007.80,0002.59,0001.90
2021-10-31 05:09:00,,0830.1,5.00,0.00,29.8,28.9,00.0,38.9,31.5,15.9,0000.0,0007.15,0002.57,0001.91
2021-10-31 05:10:00,,0830.1,5.01,0.00,29.8,28.9,00.0,38.9,31.5,15.9,0000.0,0005.72,0002.53,0001.91
2021-10-31 05:11:00,,0830.1,4.99,0.00,29.8,28.9,00.0,38.9,31.5,15.9,0000.0,0005.83,0002.51,0001.91
2021-10-31 05:12:00,,0830.2,5.02,0.00,29.8,28.9,00.0,38.9,31.5,15.8,0000.0,0005.74,0002.52,0001.92
2021-10-31 05:13:00,,0830.1,5.00,0.00,29.8,28.9,00.0,38.9,31.5,15.8,0000.0,0005.40,0002.49,0001.93
2021-10-31 05:14:00,,0830.1,4.99,0.00,29.8,28.9,00.0,38.9,31.5,15.8,0000.0,0005.18,0002.48,0001.92
2021-10-31 05:15:00,,0830.1,5.00,0.00,29.8,28.9,00.0,38.8,31.5,15.8,0000.0,0005.46,0002.49,0001.92
2021-10-31 05:16:00,,0830.1,5.00,0.00,29.8,28.9,00.0,38.8,31.5,15.8,0000.0,0005.86,0002.47,0001.94
2021-10-31 05:17:00,,0830.1,5.00,0.00,29.8,28.9,00.0,38.8,31.5,15.8,0000.0,0005.72,0002.50,0001.97
2021-10-31 05:18:00,,0830.1,5.01,0.00,29.8,28.9,00.0,38.8,31.5,15.8,0000.0,0005.20,0002.55,0001.98
2021-10-31 05:19:00,,0830.1,4.98,0.00,29.8,28.9,00.0,38.8,31.5,15.7,0000.0,0007.12,0002.58,0001.98
2021-10-31 05:20:00,,0830.1,5.01,0.00,29.8,28.9,00.0,38.8,31.5,15.7,0000.0,0008.27,0002.63,0001.99
2021-10-31 05:21:00,,0830.1,4.99,0.00,29.8,28.9,00.0,38.8,31.5,15.7,0000.0,0008.66,0002.69,0002.01
2021-10-31 05:22:00,,0830.1,5.01,0.00,29.8,28.9,00.0,38.8,31.5,15.7,0000.0,0008.60,0002.71,0002.04
2021-10-31 05:23:00,,0830.1,5.01,0.00,29.8,28.9,00.0,38.8,31.5,15.7,0000.0,0008.73,0002.78,0002.07
2021-10-31 05:24:00,,0830.1,4.99,0.00,29.8,28.9,00.0,38.8,31.5,15.7,0000.0,0008.93,0002.89,0002.09
2021-10-31 05:25:00,,0830.1,5.00,0.00,29.8,28.9,00.0,38.8,31.5,15.7,0000.0,0009.04,0002.96,0002.12
2021-10-31 05:26:00,,0830.1,5.01,0.00,29.8,28.9,00.0,38.8,31.5,15.7,0000.0,0008.95,0003.04,0002.14
2021-10-31 05:27:00,,0830.1,5.00,0.00,29.8,28.9,00.0,38.8,31.5,15.7,0000.0,0008.76,0003.09,0002.14
2021-10-31 05:28:00,,0830.2,5.00,0.00,29.8,28.9,00.0,38.8,31.5,15.7,0000.0,0008.67,0003.06,0002.14
2021-10-31 05:29:00,,0830.1,5.00,0.00,29.8,28.9,00.0,38.8,31.5,15.7,0000.0,0008.61,0003.03,0002.15
2021-10-31 05:30:00,,0830.1,5.01,0.00,29.8,28.9,00.0,38.8,31.5,15.7,0000.0,0007.74,0003.06,0002.16
2021-10-31 05:31:00,,0830.1,4.99,0.00,29.8,28.9,00.0,38.8,31.5,15.7,0000.0,0006.14,0002.98,0002.16
2021-10-31 05:32:00,,0830.1,4.99,0.00,29.8,28.9,00.0,38.8,31.5,15.7,0000.0,0006.46,0003.02,0002.17
2021-10-31 05:33:00,,0830.1,5.00,0.00,29.8,28.9,00.0,38.8,31.5,15.7,0000.0,0006.59,0003.01,0002.15
2021-10-31 05:34:00,,0830.1,5.01,0.00,29.7,28.8,00.0,38.8,31.5,15.7,0000.0,0007.30,0002.93,0002.14
2021-10-31 05:35:00,,0830.1,4.99,0.00,29.7,28.9,00.0,38.8,31.5,15.7,0000.0,0007.46,0002.90,0002.13
2021-10-31 05:36:00,,0830.1,5.00,0.00,29.8,28.9,00.0,38.8,31.5,15.7,0000.0,0007.86,0002.85,0002.11
2021-10-31 05:37:00,,0830.1,5.01,0.00,29.8,28.9,00.0,38.8,31.5,15.7,0000.0,0008.68,0002.82,0002.11
2021-10-31 05:38:00,,0830.1,5.01,0.00,29.7,28.9,00.0,38.8,31.5,15.7,0000.0,0008.68,0002.82,0002.12
2021-10-31 05:39:00,,0830.1,5.00,0.00,29.7,28.8,00.0,38.8,31.5,15.7,0000.0,0008.69,0002.81,0002.12
2021-10-31 05:40:00,,0830.1,5.00,0.00,29.7,28.9,00.0,38.8,31.5,15.7,0000.0,0008.85,0002.81,0002.13
2021-10-31 05:41:00,,0830.1,5.01,0.00,29.7,28.9,00.0,38.8,31.5,15.7,0000.0,0008.98,0002.82,0002.14
2021-10-31 05:42:00,,0830.0,4.99,0.00,29.7,28.9,00.0,38.8,31.5,15.7,0000.0,0009.08,0002.86,0002.14
2021-10-31 05:43:00,,0830.0,5.00,0.00,29.7,28.9,00.0,38.8,31.5,15.7,0000.0,0009.17,0002.80,0002.14
2021-10-31 05:44:00,,0830.0,5.00,0.00,29.7,28.9,00.0,38.8,31.5,15.7,0000.0,0009.19,0002.76,0002.15
2021-10-31 05:45:00,,0830.1,4.99,0.00,29.7,28.8,00.0,38.8,31.5,15.7,0000.0,0008.73,0002.80,0002.15
2021-10-31 05:46:00,,0830.1,5.00,0.00,29.7,28.8,00.0,38.8,31.5,15.7,0000.0,0008.53,0002.76,0002.15
2021-10-31 05:47:00,,0830.1,5.01,0.00,29.7,28.9,00.0,38.8,31.5,15.7,0000.0,0009.35,0002.77,0002.15
2021-10-31 05:48:00,,0830.1,5.00,0.00,29.7,28.9,00.0,38.8,31.5,15.7,0000.0,0008.48,0002.78,0002.14
2021-10-31 05:49:00,,0830.1,5.01,0.00,29.7,28.9,00.0,38.8,31.5,15.6,0000.0,0008.90,0002.76,0002.13
2021-10-31 05:50:00,,0830.1,5.00,0.00,29.7,28.9,00.0,38.8,31.5,15.7,0000.0,0009.24,0002.78,0002.12
2021-10-31 05:51:00,,0830.1,5.00,0.00,29.7,28.9,00.0,38.8,31.5,15.7,0000.0,0009.43,0002.81,0002.12
2021-10-31 05:52:00,,0830.0,5.00,0.00,29.7,28.9,00.0,38.8,31.5,15.7,0000.0,0009.10,0002.79,0002.13
2021-10-31 05:53:00,,0830.1,4.99,0.00,29.7,28.9,00.0,38.8,31.5,15.7,0000.0,0009.65,0002.76,0002.14
2021-10-31 05:54:00,,0830.1,5.00,0.00,29.7,28.9,00.0,38.8,31.5,15.7,0000.0,0009.16,0002.78,0002.16
2021-10-31 05:55:00,,0830.1,5.00,0.00,29.7,28.8,00.0,38.8,31.5,15.8,0000.0,0008.92,0002.81,0002.17
2021-10-31 05:56:00,,0830.1,5.00,0.00,29.7,28.8,00.0,38.8,31.5,15.8,0000.0,0008.93,0002.79,0002.18
2021-10-31 05:57:00,,0830.1,5.01,0.00,29.7,28.8,00.0,38.8,31.5,15.8,0000.0,0008.79,0002.77,0002.18
2021-10-31 05:58:00,,0830.0,4.99,0.00,29.7,28.8,00.0,38.8,31.5,15.8,0000.0,0007.86,0002.77,0002.20
2021-10-31 05:59:00,,0830.0,5.00,0.00,29.7,28.8,00.0,38.8,31.5,15.8,0000.0,0007.78,0002.73,0002.20
